Hourly Data Report for October 08, 2013

All times are specified in Local Standard Time (LST). Add 1 hour to adjust for Daylight Saving Time where and when it is observed.

CHARLOTTETOWN A
PRINCE EDWARD ISLAND

46°17'21.000" N
63°07'09.000" W
48.50 m
8300301
71706
YYG

Download Data

Hourly Data (October 2013)
Hourly Data Report for October 8, 2013
Temp Definition
°C
Dew Point Temp Definition
°C
Rel Hum Definition
%
Wind Dir Definition
10's deg

Wind Spd Definition
km/h
Visibility Definition
km
Stn Press Definition
kPa
Hmdx Definition


Wind Chill Definition


Weather Definition


TIME
00:00 Legend Double Dagger 14.9 12.8 87 15 35 24.1 101.12     LegendNANA
01:00 Legend Double Dagger 15.8 13.7 87 17 34 24.1 101.05     LegendNANA
02:00 Legend Double Dagger 16.5 14.2 86 17 39 24.1 100.92     Cloudy
03:00 Legend Double Dagger 16.1 14.3 89 17 35 24.1 100.80     LegendNANA
04:00 Legend Double Dagger 16.9 14.8 87 17 41 24.1 100.73     LegendNANA
05:00 Legend Double Dagger 17.1 15.1 88 16 32 24.1 100.70     Cloudy
06:00 Legend Double Dagger 17.8 15.6 87 17 33 24.1 100.61     LegendNANA
07:00 Legend Double Dagger 18.2 16.2 88 18 41 24.1 100.54     LegendNANA
08:00 Legend Double Dagger 18.5 16.7 89 18 33 19.3 100.49     Cloudy
09:00 Legend Double Dagger 13.4 12.0 91 29 29 2.4 100.59     Heavy Rain Showers,Fog
10:00 Legend Double Dagger 12.2 10.8 91 28 20 9.7 100.68     Rain Showers,Fog
11:00 Legend Double Dagger 11.9 10.8 93 25 17 8.1 100.78     Rain Showers,Fog
12:00 Legend Double Dagger 13.2 11.1 87 26 21 24.1 100.84     LegendNANA
13:00 Legend Double Dagger 14.0 9.1 72 27 24 24.1 100.90     LegendNANA
14:00 Legend Double Dagger 15.3 8.4 63 26 31 24.1 100.95     Mainly Clear
15:00 Legend Double Dagger 15.4 7.0 57 27 28 24.1 101.03     LegendNANA
16:00 Legend Double Dagger 15.0 7.1 59 29 16 24.1 101.16     LegendNANA
17:00 Legend Double Dagger 13.5 6.2 61 29 8 24.1 101.24     Mainly Clear
18:00 Legend Double Dagger 11.8 5.5 65 28 10 24.1 101.47     LegendNANA
19:00 Legend Double Dagger 10.9 4.8 66 30 14 24.1 101.55     LegendNANA
20:00 Legend Double Dagger 9.5 4.3 70 30 12 24.1 101.66     Mainly Clear
21:00 Legend Double Dagger 8.9 3.6 69 30 12 24.1 101.73     LegendNANA
22:00 Legend Double Dagger 8.8 3.5 69 30 17 24.1 101.80     LegendNANA
23:00 Legend Double Dagger 8.2 2.5 67 32 9 24.1 101.90     Mainly Clear

Notes on Data Quality.

Legend

  • E = Estimated
  • M = Missing
  • NA = Not Available
  • ‡ = Partner data that is not subject to review by the National Climate Archives
Date modified: